Location: ASU Dark Sky Observatory
(36.2504°N, 81.4125°W)
Time: 16:20:16
(UTC-04:00)

Daily predictions for brighter satellites

Satellite Brightness Start Highest point End
(mag) Time Altitude Azimuth Time Altitude Azimuth Time Altitude Azimuth
Cosmos 1378 3.1 21:12:39 10° S 21:16:21 65° E 21:20:05 10° NNE
Cosmos 968 Rocket 3.9 21:12:33 10° S 21:17:22 42° ESE 21:22:15 10° NNE
Cosmos 1766 Rocket 3.5 21:13:41 10° S 21:18:06 76° E 21:22:31 10° N
Delta 2 Rocket 4.2 21:17:10 10° SSW 21:19:55 21° SSE 21:22:33 10° ESE
DELTA 2 R/B (1) 4.1 21:21:11 10° W 21:26:42 62° N 21:32:11 10° ENE
Cosmos 332 Rocket 3.9 21:24:20 10° N 21:29:08 63° ENE 21:33:56 10° SSE
ATLAS CENTAUR R/B 1.8 21:27:07 10° NNW 21:31:35 54° ENE 21:35:23 12° SE
ASTRO E2 4.3 21:28:45 10° WSW 21:31:55 22° SSW 21:35:00 10° SSE
Envisat 3.6 21:27:54 10° SE 21:32:36 40° ENE 21:37:20 10° N
Cosmos 1553 Rocket 4.3 21:28:43 10° N 21:34:59 54° E 21:41:09 10° SSE
Cosmos 1515 Rocket 4.4 21:31:46 10° NNE 21:35:47 33° ENE 21:39:22 12° SE
Nimbus 7 Rocket 4.4 21:39:11 10° NNE 21:44:59 63° ESE 21:50:46 10° S
ERS-1 Rocket 3.0 21:40:03 10° SSE 21:45:03 87° WSW 21:50:08 10° NNW
CZ-4 DEB 4.4 21:43:42 10° SSW 21:46:37 33° W 21:49:35 10° NNW
Cosmos 1441 Rocket 3.3 21:43:02 10° S 21:46:45 53° E 21:50:26 10° NNE
Cosmos 1777 Rocket 4.2 21:42:38 10° S 21:47:41 48° ESE 21:52:44 10° NNE
Cosmos 1939 Rocket 2.8 21:49:26 11° SSE 21:53:12 79° ENE 21:57:09 10° N
H-2A R/B 4.2 21:52:11 10° E 21:54:07 12° ENE 21:56:06 10° NE
Cosmos 2322 Rocket 2.2 21:50:24 10° NNW 21:56:02 75° ENE 22:00:35 16° SSE
SPOT 5 2.9 21:57:16 17° SSE 22:00:37 57° ENE 22:05:13 10° N
Cosmos 1437 4.0 22:02:32 22° ESE 22:03:09 24° E 22:05:51 10° NE
CZ-2C R/B 2.0 22:02:26 14° SSW 22:03:30 23° W 22:05:04 10° NW
Cosmos 2151 3.7 22:01:49 20° SE 22:04:01 33° E 22:07:47 10° NNE
SL-16 R/B 2.2 21:58:53 10° NNW 22:04:35 82° ENE 22:08:55 18° SSE
NOSS 3-1 (C) 4.4 22:03:18 18° SE 22:05:31 23° ESE 22:10:08 10° ENE
SPOT 1/Viking Rocket 4.3 22:02:26 18° SE 22:05:33 36° ENE 22:10:12 10° N
Cosmos 371 Rocket 3.3 22:01:24 10° NNW 22:06:13 83° WSW 22:09:58 17° SSE
Meteor 2-2 Rocket 4.5 22:00:43 10° N 22:06:40 64° E 22:11:18 17° SSE
Cosmos 1980 Rocket 3.7 22:01:47 10° NW 22:06:46 32° WSW 22:11:45 10° SSW
Cosmos 1908 3.7 22:03:06 10° N 22:06:50 44° E 22:08:45 24° SE
Cosmos 2360 Rocket 3.2 22:02:28 10° N 22:07:31 32° ENE 22:10:47 18° ESE
Cosmos 1151 Rocket 3.4 22:06:07 10° N 22:10:15 45° E 22:12:25 24° SE
Cosmos 1538 Rocket 4.1 22:10:49 10° NNW 22:16:10 80° WSW 22:20:05 19° S
Cosmos 1680 Rocket 4.4 22:12:34 10° N 22:17:20 34° ENE 22:19:50 22° ESE
H-2A R/B 3.0 22:13:59 10° S 22:18:16 48° W 22:22:40 10° NNW
S3M 4.3 22:13:43 10° NNW 22:19:45 63° W 22:25:46 10° S
Cosmos 923 Rocket 4.4 22:15:12 10° N 22:20:14 48° ENE 22:22:51 26° SE
Meteor 2-20 4.5 22:14:41 10° S 22:20:51 85° W 22:27:01 10° N
Cosmos 1437 Rocket 2.7 22:22:32 10° N 22:26:21 82° W 22:28:15 28° S
Cosmos 1674 2.8 22:26:17 18° SSW 22:29:00 76° W 22:32:51 10° N
Cosmos 1833 4.2 22:23:57 10° SSW 22:29:41 90° E 22:35:24 10° NNE
MetOp-B 4.1 22:27:22 23° SSE 22:30:52 89° WSW 22:36:16 10° NNW
PSLV R/B 3.9 22:31:44 30° SSW 22:32:55 48° W 22:35:56 10° NNW
CZ-4C R/B 4.3 22:34:28 25° E 22:34:42 26° ENE 22:37:38 10° NNE
CZ-4B R/B 3.5 22:30:43 10° NNE 22:36:01 88° ESE 22:40:23 15° SSW
SL-08 RB Rocket 4.0 22:36:33 35° ESE 22:37:58 48° ENE 22:42:16 10° N
Cosmos 1300 3.7 22:35:38 10° NNE 22:39:03 30° ENE 22:39:16 30° E
Cosmos 2058 3.0 22:39:47 43° SE 22:40:42 54° E 22:44:44 10° NNE
Cosmos 1328 3.6 22:40:37 37° S 22:42:06 85° E 22:46:05 10° N
GPS 2-04 Rocket1 3.6 22:40:43 10° W 22:44:42 36° SSW 22:45:05 35° S
Cosmos 773 Rocket 4.1 22:41:03 10° NNW 22:46:14 74° WSW 22:48:41 32° S
COSMOS 2428 3.7 22:41:15 10° N 22:46:19 33° ENE 22:48:24 25° E
USA 229 DEB 4.4 22:40:24 10° SW 22:47:11 57° NW 22:54:04 10° NNE
USA 229 4.3 22:40:30 10° SW 22:47:16 58° NW 22:54:10 10° NNE
DELTA 2 DEB (DPAF) 4.5 22:49:23 41° ESE 22:50:25 50° ENE 22:54:46 10° N
Landsat 7 4.2 22:51:46 40° ESE 22:52:57 50° ENE 22:57:32 10° N
Cosmos 304 Rocket 3.7 22:48:54 10° NNW 22:53:44 79° ENE 22:55:08 47° SSE
Cosmos 2297 Rocket 4.4 22:59:14 10° ENE 22:59:14 10° ENE 22:59:22 10° ENE
IGS 5A 4.4 23:00:13 33° ENE 23:00:24 33° ENE 23:04:10 10° N
Delta 2 Rocket 4.2 22:58:42 10° WSW 23:00:31 28° WSW 23:00:31 28° WSW
USA 245 3.8 23:04:46 35° W 23:04:46 35° W 23:06:56 10° NNW
NOSS 3-1 (A) 3.4 23:05:10 41° SSE 23:06:49 54° ESE 23:12:57 10° NE
Terra 2.1 23:08:07 46° ESE 23:08:48 50° ENE 23:13:24 10° N
YAOGAN 6 4.1 23:08:39 26° SW 23:09:36 29° W 23:12:50 10° NW
ATLAS CENTAUR R/B 3.9 23:08:24 10° W 23:10:02 12° WSW 23:11:36 10° SW
Cosmos 2219 Rocket 3.5 23:06:33 10° N 23:11:10 26° ENE 23:12:41 23° E
Cosmos 2315 Rocket 4.1 23:05:05 10° N 23:11:16 71° W 23:14:09 33° S
DELTA 2 R/B (1) 3.6 23:07:53 10° WNW 23:13:27 79° NNE 23:15:33 39° E
SL-14 R/B 3.1 23:13:39 86° SW 23:13:43 88° W 23:17:42 10° N
Cosmos 1703 4.0 23:16:03 40° NE 23:16:03 40° NE 23:19:00 10° NNE
ARGOS 3.5 23:14:35 35° SSW 23:16:39 57° W 23:21:59 10° NNW
Cosmos 2298 Rocket 3.9 23:15:36 48° S 23:17:07 81° ESE 23:22:28 10° NNE
Meteor 1-27 4.1 23:12:37 10° N 23:18:21 89° W 23:19:54 50° S
CARTOSAT-1 3.4 23:20:21 71° E 23:20:28 72° ENE 23:24:47 10° N
Cosmos 2219 3.6 23:16:52 16° SW 23:21:28 63° WNW 23:27:12 10° NNE
Cosmos 2112 Rocket 4.1 23:16:24 10° NNW 23:21:36 69° WSW 23:22:47 51° SSW
Cosmos 1633 Rocket 3.0 23:26:23 68° SW 23:26:47 75° W 23:31:10 10° N
Cosmos 1271 Rocket 3.4 23:23:28 10° N 23:26:28 45° NE 23:26:28 45° NE
Sich 1 3.3 23:28:02 59° SW 23:28:37 66° W 23:33:02 10° N
ATLAS 2AS CENTAUR R/B 3.6 23:29:35 34° ESE 23:29:35 34° ESE 23:36:23 10° NE
Cosmos 2333 4.4 23:24:34 10° NNW 23:30:14 60° ENE 23:31:14 52° ESE
Cosmos 2322 4.3 23:26:40 10° NNW 23:32:08 48° WSW 23:33:36 39° SSW
H-2A R/B 2.1 23:31:47 61° S 23:32:44 81° WSW 23:38:09 10° NNW
Cosmos 1937 Rocket 3.3 23:34:59 70° ESE 23:35:11 71° ESE 23:40:23 10° NNE
Cosmos 2082 4.4 23:36:11 38° E 23:36:11 38° E 23:40:46 10° NE
Spot 2 4.3 23:31:31 10° NNE 23:36:40 89° W 23:37:17 70° SSW
Cosmos 2237 Rocket 3.5 23:31:50 10° N 23:36:41 28° ENE 23:37:50 26° E
Iridium 2 4.4 23:42:31 53° NNW 23:42:31 53° NNW 23:45:35 10° N
Cosmos 1726 3.2 23:39:04 10° NNW 23:42:11 43° WNW 23:42:11 43° WNW
Nadezhda 1 Rocket 3.8 23:40:43 10° N 23:46:48 73° E 23:47:39 63° SE
Cosmos 2360 Rocket 3.4 23:46:30 10° NW 23:51:23 31° WSW 23:52:34 28° SW
Cosmos 990 Rocket 4.0 23:53:10 67° ENE 23:53:10 67° ENE 23:57:52 10° NNE
